Location: 相模原市立博物館
(35.5593°N, 139.3931°E)
Time: 13:19:27
(UTC+09:00)

M-CUBED/EXP-1 PRIME - Visible Passes

Search period start: 10 August 2022 00:00
Search period end: 20 August 2022 00:00
Orbit: 422 x 631 km, 101.7° (Epoch: 09 August)

Date Brightness Start Highest point End Pass type
(mag) Time Alt. Az. Time Alt. Az. Time Alt. Az.
10 Aug ? 01:31:54 18° ENE 01:32:13 19° ENE 01:35:13 10° NNE visible
10 Aug ? 03:07:08 27° WNW 03:07:08 27° WNW 03:09:38 10° NW visible
11 Aug ? 01:20:14 13° ENE 01:20:59 14° ENE 01:23:06 10° NNE visible
11 Aug ? 02:55:27 38° NW 02:55:27 38° NW 02:58:28 10° NNW visible
12 Aug ? 02:43:45 53° NW 02:43:45 53° NW 02:47:10 10° NNW visible
13 Aug ? 02:32:03 61° NNE 02:32:03 61° NNE 02:35:45 10° NNW visible
14 Aug ? 02:20:19 49° NE 02:20:19 49° NE 02:24:14 10° N visible
14 Aug ? 03:55:32 11° WNW 03:55:32 11° WNW 03:55:49 10° WNW visible
15 Aug ? 02:08:34 35° ENE 02:08:36 35° ENE 02:12:36 10° N visible
15 Aug ? 03:43:47 16° WNW 03:43:47 16° WNW 03:45:26 10° NW visible
16 Aug ? 01:56:48 25° ENE 01:57:14 25° ENE 02:00:50 10° N visible
16 Aug ? 03:32:01 23° WNW 03:32:01 23° WNW 03:34:32 10° NW visible
17 Aug ? 01:45:01 18° ENE 01:45:52 19° ENE 01:48:54 10° NNE visible
17 Aug ? 03:20:14 33° WNW 03:20:14 33° WNW 03:23:23 10° NW visible
18 Aug ? 01:33:12 12° E 01:34:30 13° ENE 01:36:39 10° NNE visible
18 Aug ? 03:08:25 49° WNW 03:08:25 49° WNW 03:12:05 10° NNW visible
19 Aug ? 02:56:36 73° NW 02:56:36 73° NW 03:00:39 10° NNW visible
